x

Halibut Bank (46146) Wave Buoy

6:00 - Thu 19th Jan 2017 All times are PST. -8 hours from GMT.

  • Sig Wave height 2.0ft
  • Peak Period 3s
  • Wind
    20mph, 22mph gusts
  • Sea Temp 46°f
  • Luft Temp 46°f
  • Sea Pressure 996mb
  • Halibut Bank
  • Halibut Bank

More Historic Weather Station data

Upgrade to MSW Pro to gain access to the past 30 days of data for over 8000 Wavebouys and Weather Stations around the globe.

Join Pro

Comparision Forecast

View Surf forecast
   
Do 01/19 6:00 2ft 3s 20 22 mph 996mb 46f 46f
5:00 1.6ft 3s 18 20 mph 996.2mb 46f 46f
4:00 1.6ft 3s 18 20 mph 996.2mb 46f 46f
3:00 1.6ft 4s 20 22 mph 995.8mb 46f 46f
2:00 2ft 3s 18 20 mph 995.8mb 46f 46f
1:00 2ft 3s 18 20 mph 996.2mb 47f 46f
12:00 2.5ft 4s 13 18 mph 996.4mb 46f 46f
11:00 2.5ft 4s 16 18 mph 996.7mb 46f 46f
10:00 2ft 3s 16 20 mph 996.6mb 46f 46f
9:00 2ft 3s 18 20 mph 996.3mb 47f 45f
8:00 2.5ft 4s 16 18 mph 995.8mb 46f 45f
7:00 3ft 4s 20 22 mph 995.1mb 46f 45f
6:00 3ft 4s 18 22 mph 994.9mb 46f 46f
5:00 3.5ft 4s 20 27 mph 994.4mb 46f 46f
4:00 2.5ft 3s 20 25 mph 994.1mb 46f 46f
3:00 1.6ft 3s 22 27 mph 993.7mb 46f 46f
2:00 1ft 2s 18 22 mph 992.8mb 46f 45f
1:00 0.7ft 4s 11 16 mph 991.5mb 46f 46f
12:00 1ft 3s 9
mph
990.3mb 46f 46f
Mi 01/18 11:00 1ft 4s 9
mph
989.9mb 46f 46f
10:00 1.3ft 3s 11
mph
989.3mb 46f 46f
9:00 1.3ft 3s 13 16 mph 988.8mb 46f 46f
8:00 1.6ft 3s 16 18 mph 989.1mb 46f 47f
7:00 1.6ft 3s 16 20 mph 988.7mb 46f 48f
6:00 2ft 3s 16 18 mph 989mb 46f 48f
5:00 2.5ft 4s 16 20 mph 989.5mb 46f 48f
4:00 2.5ft 4s 13 16 mph 990mb 46f 48f
3:00 3.5ft 5s 22 25 mph 990.1mb 46f 49f
2:00 3.5ft 4s 20 25 mph 989.9mb 46f 48f
1:00 3.5ft 4s 22 25 mph 989.7mb 46f 48f
12:00 4ft 5s 27 34 mph 989.4mb 46f 48f
11:00 4ft 4s 27 31 mph 988.9mb 46f 48f
10:00 3.5ft 4s 27 31 mph 988.8mb 46f 48f
9:00 3ft 4s 25 29 mph 988.4mb 45f 47f
8:00 3ft 4s 22 29 mph 989mb 45f 47f
7:00 3.5ft 4s 25 29 mph 989.8mb 45f 47f
6:00 3.5ft 4s 22 27 mph 991.2mb 45f 48f
5:00 3.5ft 4s 25 29 mph 991.3mb 45f 47f
4:00 3.5ft 4s 27 31 mph 991.9mb 45f 48f
3:00 4.5ft 5s 27 31 mph 992.6mb 45f 48f
2:00 4.5ft 5s 25 27 mph 993.5mb 45f 47f
1:00 4.5ft 5s 27 31 mph 993.8mb 45f 47f
12:00 4.5ft 6s 27 34 mph 993.5mb 45f 47f
Di 01/17 11:00 4.5ft 5s 27 31 mph 993.4mb 45f 47f
10:00 5ft 5s 27 34 mph 992.8mb 45f 47f
9:00 4.5ft 5s 29 36 mph 992.4mb 45f 47f
8:00 3.5ft 4s 29 34 mph 992.7mb 45f 47f
7:00 3.5ft 4s 27 34 mph 993.2mb 45f 47f
6:00 3.5ft 4s 27 34 mph 993.5mb 45f 48f
5:00 4.5ft 5s 25 29 mph 995.3mb 45f 47f
4:00 4.5ft 4s 29 34 mph 996.4mb 45f 47f
3:00 4ft 4s 31 36 mph 997.4mb 45f 46f
2:00 3.5ft 4s 29 34 mph 998.9mb 45f 47f
1:00 4ft 4s 31 40 mph 1000mb 45f 47f
12:00 3.5ft 4s 29 38 mph 1001.4mb 45f 48f
11:00 3.5ft 4s 27 34 mph 1002.3mb 45f 48f
10:00 3.5ft 4s 27 34 mph 1002.1mb 45f 47f
9:00 3.5ft 4s 27 31 mph 1002.5mb 45f 47f
8:00 3.5ft 4s 31 38 mph 1002.5mb 44f 47f
7:00 3.5ft 4s 29 34 mph 1002.8mb 44f 47f
6:00 2.5ft 4s 27 31 mph 1004.2mb 44f 47f
5:00 2.5ft 4s 29 38 mph 1004.1mb 44f 46f
4:00 2ft 3s 27 31 mph 1006.7mb 44f 46f
3:00 1.3ft 3s 20 25 mph 1008.8mb 44f 46f
2:00 1.3ft 3s 11 16 mph 1010.7mb 44f 45f
1:00 1.6ft 3s 11 13 mph 1010.9mb 44f 46f
12:00 1.6ft 4s 13 16 mph 1011.5mb 44f 45f
Mo 01/16 11:00 2.5ft 4s 22 29 mph 1011.3mb 45f 47f
10:00 2.5ft 4s 22 27 mph 1012.3mb 45f 46f
9:00 2.5ft 3s 25 29 mph 1012mb 45f 45f
8:00 2.5ft 3s 27 31 mph 1012.4mb 44f 45f
7:00 1.6ft 3s 22 27 mph 1012.8mb 44f 44f
6:00 1.3ft 3s 18 20 mph 1014.2mb 44f 44f
5:00 1.3ft 3s 13
mph
1015.2mb 44f 44f
4:00 1.6ft 3s 13 18 mph 1014.7mb 44f 43f
3:00 1.3ft 3s 18 20 mph 1014.8mb 44f 43f
2:00 1.6ft 3s 18 20 mph 1016mb 44f 42f
1:00 1.3ft 3s 18 20 mph 1017.4mb 44f 42f
12:00 1.6ft 3s 18 22 mph 1018.9mb 44f 42f
11:00 1.6ft 3s 16 20 mph 1020.2mb 44f 41f
10:00 1.6ft 3s 18 22 mph 1020.7mb 44f 41f
9:00 1ft 3s 18 20 mph 1020.9mb 44f 41f
8:00 1ft 3s 13 16 mph 1021.4mb 44f 41f
7:00 0.7ft 2s 11 13 mph 1021.8mb 44f 41f
6:00 1ft 3s 11 13 mph 1022.7mb 44f 41f
5:00 1ft 2s 11 13 mph 1023.4mb 44f 41f
4:00 0.7ft 2s 13 16 mph 1024.2mb 44f 40f